Flag Weather past 2 weeks in Haan, North Rhine-Westphalia, Germany

Now
55 °F

Clear.


Feels Like: 52 °F
Forecast: 39 / 49 °F
Wind: 14 mph from South

Location: Duesseldorf

Current Time: Nov 23, 2014 at 6:42:36 PM

Latest Report: Nov 23, 2014 at 6:20 PM


Visibility: 10 mi

Pressure: 29.98 "Hg

Humidity: 72%

Dew point: 46 °F

Location of HaanLocation

Historic Weather in Haan — Graph

°F

Haan temperature yesterday

Maximum temperature yesterday: 52 °F (at 12:50 PM)
Minimum temperature yesterday: 41 °F (at 1:50 AM)
Average temperature yesterday: 47 °F

Past Weeks' High & Low Weather Summary

 TemperatureHumidityPressure
High59 °F (Nov 23, 1:50 PM)100% (Nov 10, 6:20 AM)30.33 "Hg (Nov 10, 6:20 AM)
Low34 °F (Nov 21, 2:50 AM)58% (Nov 21, 1:50 PM)29.50 "Hg (Nov 16, 4:20 PM)
Average49 °F84%29.86 "Hg
* Reported Nov 8 5:20 PM — Nov 23 5:20 PM, Haan, Weather by CustomWeather, © 2014

Note: Actual official high and low records may vary slightly from our data, if they occured in-between our weather recording intervals... More about our weather records

Advertising

Haan weather history for previous 24 hours

 ConditionsComfort  
Time TempWeatherWind HumidityBarometerVisibility
5:20 PM
Nov 23
55 °FClear.15 mph72%29.95 "Hg10 mi
4:50 PM55 °FClear.14 mph72%29.98 "Hg10 mi
4:20 PM57 °FSunny.13 mph67%29.98 "Hg10 mi
3:50 PM57 °FSunny.13 mph67%29.98 "Hg10 mi
3:20 PM57 °FSunny.13 mph67%29.98 "Hg10 mi
2:50 PM57 °FSunny.15 mph67%29.98 "Hg10 mi
2:20 PM57 °FSunny.13 mph67%30.01 "Hg10 mi
1:50 PM59 °FSunny.13 mph63%30.01 "Hg10 mi
1:20 PM57 °FSunny.13 mph67%30.01 "Hg10 mi
12:50 PM57 °FSunny.13 mph67%30.04 "Hg10 mi
12:20 PM57 °FSunny.13 mph67%30.04 "Hg10 mi
11:50 AM55 °FSunny.13 mph72%30.07 "Hg10 mi
11:20 AM54 °FSunny.14 mph72%30.07 "Hg10 mi
10:50 AM54 °FSunny.13 mph72%30.07 "Hg10 mi
10:20 AM52 °FSunny.13 mph77%30.07 "Hg10 mi
9:50 AM52 °FSunny.12 mph72%30.07 "Hg10 mi
9:20 AM50 °FSunny.10 mph82%30.07 "Hg10 mi
8:50 AM50 °FSunny.7 mph82%30.09 "Hg10 mi
8:20 AM50 °FSunny.14 mph82%30.07 "Hg10 mi
7:50 AM50 °FClear.9 mph82%30.07 "Hg10 mi
7:20 AM50 °FClear.13 mph82%30.07 "Hg10 mi
6:50 AM50 °FClear.15 mph82%30.07 "Hg10 mi
6:20 AM50 °FClear.12 mph82%30.07 "Hg10 mi
5:50 AM50 °FClear.13 mph82%30.07 "Hg10 mi
5:20 AM50 °FClear.13 mph82%30.07 "Hg10 mi
4:50 AM50 °FClear.13 mph82%30.07 "Hg10 mi
4:20 AM50 °FClear.12 mph82%30.07 "Hg10 mi
3:50 AM50 °FClear.13 mph82%30.07 "Hg10 mi
3:20 AM50 °FClear.12 mph82%30.09 "Hg10 mi
2:50 AM50 °FClear.13 mph82%30.09 "Hg10 mi
2:20 AM50 °FClear.14 mph82%30.09 "Hg10 mi
1:50 AM50 °FClear.13 mph82%30.09 "Hg10 mi
1:20 AM50 °FClear.12 mph82%30.09 "Hg10 mi
12:50 AM50 °FClear.10 mph82%30.09 "Hg10 mi
12:20 AM50 °FClear.10 mph82%30.09 "Hg10 mi
11:50 PM
Nov 22
50 °FClear.9 mph82%30.09 "Hg10 mi
11:20 PM50 °FClear.12 mph82%30.07 "Hg10 mi
10:50 PM50 °FClear.10 mph82%30.07 "Hg10 mi
10:20 PM50 °FClear.10 mph82%30.09 "Hg10 mi
9:50 PM50 °FClear.12 mph82%30.07 "Hg10 mi
9:20 PM50 °FClear.10 mph82%30.07 "Hg10 mi
8:50 PM50 °FClear.13 mph82%30.07 "Hg10 mi
8:20 PM50 °FClear.10 mph82%30.07 "Hg10 mi
7:50 PM50 °FClear.12 mph82%30.07 "Hg10 mi
7:20 PM50 °FClear.12 mph82%30.07 "Hg10 mi
6:50 PM50 °FClear.12 mph82%30.07 "Hg10 mi
6:20 PM50 °FClear.13 mph82%30.07 "Hg10 mi
Weather by CustomWeather, © 2014

See weather overviewHow to use our weather pages